Home   Weather   Cap-Haïtien   Past weeks

Flag for Haiti Past Weather in Cap-Haïtien, Haiti — Yesterday and Last 2 Weeks

Now
81 °F

Passing clouds.


Feels Like: 85 °F
Forecast: 76 / 87 °F
Wind: 13 mph from Southeast

Location: Santiago

Current Time: May 25, 2017 at 9:35:05 pm

Latest Report: May 25, 2017 at 9:00 pm


Visibility: N/A

Pressure: 30.01 "Hg

Humidity: 79%

Dew Point: 73 °F

Location of Cap-HaïtienLocation

Past Weather in Cap-Haïtien — Graph

°F

Cap-Haïtien Temperature Yesterday

Maximum temperature yesterday: 91 °F (at 2:00 pm)
Minimum temperature yesterday: 75 °F (at 1:00 am)
Average temperature yesterday: 81 °F

High & Low Weather Summary for the Past Weeks

 TemperatureHumidityPressure
High91 °F (May 14, 4:00 pm)100% (May 11, 7:00 am)30.04 "Hg (May 11, 7:00 am)
Low68 °F (May 12, 6:00 am)43% (May 12, 3:00 pm)29.86 "Hg (May 12, 4:00 pm)
Average79 °F80%29.98 "Hg
* Reported May 10 8:00 pm — May 25 8:00 pm, Cap-Haïtien. Weather by CustomWeather, © 2017

Note: Actual official high and low records may vary slightly from our data, if they occured in-between our weather recording intervals... More about our weather records

Advertising

Cap-Haïtien Weather History for the Previous 24 Hours

Scroll right to see more
 ConditionsComfort  
Time TempWeatherWind HumidityBarometerVisibility
8:00 pm
Thu, May 25
82 °FPassing clouds.12 mph74%29.98 "HgN/A
7:00 pm86 °FPassing clouds.14 mph62%29.95 "HgN/A
6:00 pm90 °FPassing clouds.15 mph52%29.92 "HgN/A
5:00 pm90 °FPassing clouds.17 mph49%29.92 "HgN/A
4:15 pm91 °FPassing clouds.21 mph46%29.95 "HgN/A
3:00 pm91 °FPassing clouds.17 mph49%29.98 "HgN/A
2:00 pm90 °FPassing clouds.21 mph52%29.98 "HgN/A
1:00 pm90 °FScattered clouds.12 mph67%30.04 "HgN/A
12:00 pm88 °FPassing clouds.23 mph52%30.01 "HgN/A
11:00 am86 °FPassing clouds.17 mph62%30.04 "HgN/A
10:00 am84 °FScattered clouds.17 mph66%30.04 "HgN/A
9:00 am81 °FScattered clouds.23 mph84%30.04 "HgN/A
8:00 am77 °FScattered clouds.9 mph94%30.04 "HgN/A
7:00 am75 °FPartly sunny.12 mph94%30.04 "HgN/A
6:00 am75 °FPassing clouds.10 mph94%30.01 "HgN/A
5:00 am75 °FPassing clouds.10 mph94%30.01 "HgN/A
4:00 am75 °FPassing clouds.7 mph94%30.01 "HgN/A
3:00 am75 °FPassing clouds.6 mph94%30.01 "HgN/A
2:00 am75 °FPassing clouds.7 mph94%30.01 "HgN/A
1:00 am75 °FPassing clouds.9 mph94%30.04 "HgN/A
12:00 am77 °FPassing clouds.9 mph89%30.04 "HgN/A
11:00 pm
Wed, May 24
77 °FPassing clouds.13 mph83%30.04 "HgN/A
10:00 pm79 °FPassing clouds.14 mph79%30.01 "HgN/A
9:00 pm81 °FPassing clouds.9 mph74%29.98 "HgN/A
Weather by CustomWeather, © 2017

See weather overviewHow to use our weather pages